Back to catalog

STARLINK-37688

AliveCommunicationsVLEO
NORAD 69372·PAYLOAD·🇺🇸 United States

Launched Jun 4, 2026 from Cape Canaveral Space Force Station

Loading…

Next Passes (next 24 hours)

TLE

FreshSource: CelesTrak SupGP

Epoch: Sep 14, 2026, 21:33 UTC

1 69372C 26123V   26257.89840278 -.00027062  00000+0 -79922-3 0  2576
2 69372  53.1578 167.7660 0001234  91.0978 203.7560 15.34416703    13

Track STARLINK-37688 in real time with AllMySat

Download on the App Store